Weather History for KACK - December, 2012

Change the Weather History Date:

Monday, December 17, 2012

  Actual Average Record
Temperature  
Mean Temperature 47 °F -  
Max Temperature 50 °F 43 °F 57 °F (1973)
Min Temperature 44 °F 27 °F 13 °F (1972)
Degree Days  
Heating Degree Days 18    
Moisture  
Dew Point 47 °F    
Average Humidity 96    
Maximum Humidity 100    
Minimum Humidity 93    
Precipitation  
Precipitation 0.21 in - - ()
Sea Level Pressure  
Sea Level Pressure 29.86 in    
Wind  
Wind Speed 16 mph (ENE)    
Max Wind Speed 20 mph    
Max Gust Speed 29 mph    
Visibility 6 miles    
Events Rain    
Averages and records for this station are not official NWS values.
T = Trace of Precipitation, MM = Missing Value Source: NWS Daily Summary

Daily Weather History Graph

Daily Weather History Graph

Search for Another Location

Airport or City:

Trip Planner

Search our weather history database for the weather conditions in past years. The results will help you decide how hot, cold, wet, or windy it might be!

Date:

Astronomy

Dec. 17, 2012 Rise Set
Actual Time 7:00 AM EST 4:12 PM EST
Civil Twilight 6:29 AM EST 4:44 PM EST
Nautical Twilight 5:54 AM EST 5:18 PM EST
Astronomical Twilight 5:20 AM EST 5:52 PM EST
Moon 10:04 AM EST (12/17) 9:33 PM EST (12/17)
Length of Visible Light 10h 14m
Length of Day
9h 12m
Waxing Crescent, 24% of the Moon is Illuminated
Dec 17
Waxing Crescent
Dec 20
First Quarter
Dec 28
Full
Jan 4
Last Quarter
Jan 11
New

Hourly Weather History & Observations

Time (EST) Temp. Windchill Dew Point Humidity Pressure Visibility Wind Dir Wind Speed Gust Speed Precip Events Conditions
12:02 AM 44.6 °F 36.6 °F 42.8 °F 93% 29.99 in 2.5 mi East 19.6 mph 28.8 mph 0.01 in Rain Light Rain
12:53 AM 44.1 °F 36.2 °F 43.0 °F 96% 29.96 in 3.0 mi East 18.4 mph 27.6 mph 0.02 in Rain Light Rain
1:53 AM 45.0 °F 37.4 °F 44.1 °F 97% 29.96 in 3.0 mi East 18.4 mph 27.6 mph 0.01 in Rain Light Rain
2:53 AM 46.0 °F 39.6 °F 45.0 °F 96% 29.95 in 4.0 mi East 15.0 mph 24.2 mph 0.03 in Rain Light Rain
3:53 AM 46.0 °F 39.0 °F 45.0 °F 96% 29.92 in 4.0 mi East 17.3 mph 24.2 mph 0.01 in Rain Light Rain
4:53 AM 46.9 °F - 46.0 °F 97% 29.90 in 4.0 mi East 18.4 mph 25.3 mph 0.01 in Rain Light Rain
5:53 AM 46.9 °F - 46.0 °F 97% 29.91 in 5.0 mi East 15.0 mph 24.2 mph 0.05 in Rain Light Rain
7:53 AM 48.0 °F - 46.9 °F 96% 29.90 in 4.0 mi East 15.0 mph 21.9 mph 0.05 in Rain Light Rain
8:53 AM 48.0 °F - 46.9 °F 96% 29.90 in 5.0 mi ENE 12.7 mph - 0.01 in Rain Light Rain
9:53 AM 48.0 °F - 46.9 °F 96% 29.89 in 10.0 mi ENE 15.0 mph - 0.00 in Rain Light Rain
10:53 AM 48.0 °F - 46.9 °F 96% 29.88 in 10.0 mi ENE 13.8 mph - 0.00 in   Overcast
11:39 AM 48.2 °F - 48.2 °F 100% 29.85 in 2.5 mi ENE 12.7 mph - 0.01 in Rain Light Rain
11:53 AM 48.9 °F - 48.0 °F 97% 29.85 in 2.5 mi ENE 13.8 mph - 0.01 in Rain Light Rain
12:00 PM 48.2 °F - 48.2 °F 100% 29.84 in 3.0 mi ENE 12.7 mph 23.0 mph 0.00 in Rain Light Rain
12:53 PM 50.0 °F - 48.0 °F 93% 29.84 in 10.0 mi ENE 12.7 mph - 0.00 in   Overcast
1:53 PM 50.0 °F - 48.0 °F 93% 29.85 in 10.0 mi East 16.1 mph 20.7 mph 0.00 in   Overcast
2:53 PM 50.0 °F - 48.0 °F 93% 29.86 in 10.0 mi East 15.0 mph 19.6 mph N/A   Overcast
3:53 PM 48.9 °F - 46.9 °F 93% 29.83 in 10.0 mi East 16.1 mph 25.3 mph 0.01 in   Overcast
4:53 PM 48.9 °F - 46.9 °F 93% 29.80 in 10.0 mi East 17.3 mph 26.5 mph N/A   Overcast
7:53 PM 50.0 °F - 48.0 °F 93% 29.81 in 10.0 mi East 12.7 mph - N/A   Overcast
8:53 PM 50.0 °F - 48.9 °F 96% 29.81 in 7.0 mi East 11.5 mph - N/A   Overcast
9:01 PM 50.0 °F - 48.2 °F 94% 29.81 in 6.0 mi ENE 11.5 mph 19.6 mph N/A   Overcast
9:41 PM 50.0 °F - 48.2 °F 94% 29.77 in 4.0 mi ENE 11.5 mph - N/A   Overcast
9:53 PM 50.0 °F - 48.9 °F 96% 29.77 in 3.0 mi ENE 12.7 mph - 0.00 in Rain Light Rain
10:53 PM 50.0 °F - 48.9 °F 96% 29.74 in 6.0 mi ENE 10.4 mph 19.6 mph 0.00 in   Overcast
11:53 PM 50.0 °F - 48.9 °F 96% 29.71 in 4.0 mi ENE 11.5 mph - 0.00 in Rain Light Rain